Terug naar catalogus

STARLINK-30460

ActiefCommunicatieVLEO
NORAD 57870·PAYLOAD·🇺🇸 United States

Gelanceerd Sep 16, 2023 vanaf Cape Canaveral Space Force Station

Loading…

Volgende Passages (komende 24 uur)

TLE

VersSource: CelesTrak SupGP

Epoch: Sep 15, 2026, 02:39 UTC

1 57870C 23144G   26258.11090278  .00018773  00000+0  67960-3 0  2586
2 57870  43.0027 295.4908 0001380 301.6564 161.5708 15.27585524    12

Volg STARLINK-30460 in realtime met AllMySat

Download on the App Store